,,,PA_Meas_PMT16A,,PR_Meas_QMR101_102,,RH_Meas_QMH101,,SR_Meas_QMS101,,TA_Meas_QMH101,,GenWind,,GenWind,
date,time,status,PA,status,PR,status,RH,status,SR,status,TA,status,DirAvg,status,SpdAvg,
2008-06-03, 00:00:04,VALID,1009.95,VALID,0,VALID,93.507,VALID,0.105969,VALID,24.8225,VALID,123,VALID,0.427734,
2008-06-03, 00:01:04,VALID,1009.93,VALID,0,VALID,93.4155,VALID,0,VALID,24.803,VALID,136,VALID,0.596484,
2008-06-03, 00:02:04,VALID,1009.9,VALID,0,VALID,93.4689,VALID,0,VALID,24.7835,VALID,149,VALID,0.646094,
2008-06-03, 00:03:04,VALID,1009.86,VALID,0,VALID,93.4917,VALID,0,VALID,24.7835,VALID,149,VALID,0.505859,
2008-06-03, 00:04:04,VALID,1009.84,VALID,0,VALID,93.4536,VALID,0.105969,VALID,24.7835,VALID,180,VALID,0.566797,
2008-06-03, 00:05:04,VALID,1009.82,VALID,0,VALID,93.4994,VALID,0,VALID,24.764,VALID,180,VALID,0.567969,
2008-06-03, 00:06:04,VALID,1009.8,VALID,0,VALID,93.5985,VALID,0,VALID,24.764,VALID,180,VALID,0.414453,
2008-06-03, 00:07:04,VALID,1009.84,VALID,0,VALID,93.6595,VALID,0,VALID,24.7835,VALID,180,VALID,0.131641,
2008-06-03, 00:08:04,VALID,1009.87,VALID,0,VALID,93.6671,VALID,0,VALID,24.8049,VALID,206,VALID,0.408203,
2008-06-03, 00:09:04,VALID,1009.88,VALID,0,VALID,93.568,VALID,0,VALID,24.7835,VALID,240,VALID,0.303516,
2008-06-03, 00:10:04,VALID,1009.87,VALID,0,VALID,93.5222,VALID,0.105969,VALID,24.803,VALID,240,VALID,0.289063,
2008-06-03, 00:11:04,VALID,1009.9,VALID,0,VALID,93.446,VALID,0,VALID,24.8225,VALID,240,VALID,0.191406,
2008-06-03, 00:12:04,VALID,1009.87,VALID,0,VALID,93.385,VALID,0,VALID,24.8615,VALID,240,VALID,0.385547,
2008-06-03, 00:13:04,VALID,1009.87,VALID,0,VALID,93.2782,VALID,0,VALID,24.8828,VALID,240,VALID,0.521875,
2008-06-03, 00:14:04,VALID,1009.92,VALID,0,VALID,93.1562,VALID,0,VALID,24.9004,VALID,226,VALID,0.591016,
2008-06-03, 00:15:04,VALID,1009.92,VALID,0,VALID,93.1791,VALID,0,VALID,24.9218,VALID,225,VALID,0.326953,
2008-06-03, 00:16:04,VALID,1009.93,VALID,0,VALID,93.0799,VALID,0.105969,VALID,24.9004,VALID,208,VALID,0.758984,
2008-06-03, 00:17:04,VALID,1009.96,VALID,0,VALID,93.0952,VALID,0,VALID,24.8809,VALID,204,VALID,0.937109,
2008-06-03, 00:18:04,VALID,1010,VALID,0,VALID,93.1257,VALID,0,VALID,24.8809,VALID,202,VALID,0.774609,
2008-06-03, 00:19:04,VALID,1010,VALID,0,VALID,93.1791,VALID,0.105969,VALID,24.9004,VALID,198,VALID,0.546484,
2008-06-03, 00:20:04,VALID,1009.98,VALID,0,VALID,93.2172,VALID,0,VALID,24.8809,VALID,203,VALID,0.534766,
2008-06-03, 00:21:04,VALID,1010.03,VALID,0,VALID,93.2172,VALID,0,VALID,24.9199,VALID,205,VALID,0.354688,
2008-06-03, 00:22:04,VALID,1010.04,VALID,0,VALID,93.2325,VALID,0.105969,VALID,24.9394,VALID,205,VALID,0.407813,
2008-06-03, 00:23:04,VALID,1010.04,VALID,0,VALID,93.1943,VALID,0,VALID,24.9589,VALID,201,VALID,0.417578,
2008-06-03, 00:24:04,VALID,1010.06,VALID,0,VALID,93.3697,VALID,0,VALID,24.9979,VALID,185,VALID,0.914063,
2008-06-03, 00:25:04,VALID,1010.07,VALID,0,VALID,93.3621,VALID,0,VALID,25.0564,VALID,201,VALID,0.784766,
2008-06-03, 00:26:04,VALID,1010.08,VALID,0,VALID,93.2477,VALID,0,VALID,25.1167,VALID,219,VALID,0.546875,
2008-06-03, 00:27:04,VALID,1010.09,VALID,0,VALID,93.0723,VALID,0.105969,VALID,25.1538,VALID,230,VALID,0.519531,
2008-06-03, 00:28:04,VALID,1010.09,VALID,0,VALID,92.9579,VALID,0,VALID,25.1947,VALID,236,VALID,0.116797,
2008-06-03, 00:29:04,VALID,1010.09,VALID,0,VALID,92.813,VALID,0,VALID,25.2142,VALID,236,VALID,0,
2008-06-03, 00:30:04,VALID,1010.07,VALID,0,VALID,92.7063,VALID,0,VALID,25.2123,VALID,235,VALID,0.172656,
2008-06-03, 00:31:04,VALID,1010.06,VALID,0,VALID,92.5843,VALID,0,VALID,25.2727,VALID,187,VALID,0.643359,
2008-06-03, 00:32:04,VALID,1010.08,VALID,0,VALID,92.5156,VALID,0,VALID,25.2922,VALID,188,VALID,0.721484,
2008-06-03, 00:33:04,VALID,1010.08,VALID,0,VALID,92.3402,VALID,0,VALID,25.3117,VALID,171,VALID,1.19961,
2008-06-03, 00:34:04,VALID,1010.07,VALID,0,VALID,92.142,VALID,0,VALID,25.3507,VALID,194,VALID,1.38008,
2008-06-03, 00:35:04,VALID,1010.06,VALID,0,VALID,91.8141,VALID,0.105969,VALID,25.3488,VALID,196,VALID,1.25,
2008-06-03, 00:36:04,VALID,1010.06,VALID,0,VALID,91.6692,VALID,0.105969,VALID,25.3683,VALID,207,VALID,0.964844,
2008-06-03, 00:37:04,VALID,1010.04,VALID,0,VALID,91.0515,VALID,0.105969,VALID,25.3877,VALID,179,VALID,1.29336,
2008-06-03, 00:38:04,VALID,1010.04,VALID,0,VALID,90.96,VALID,0.105969,VALID,25.4072,VALID,209,VALID,0.933984,
2008-06-03, 00:39:04,VALID,1010,VALID,0,VALID,90.5101,VALID,0.105969,VALID,25.4092,VALID,185,VALID,1.52578,
2008-06-03, 00:40:04,VALID,1009.99,VALID,0,VALID,90.4948,VALID,0.105969,VALID,25.4092,VALID,212,VALID,0.638672,
2008-06-03, 00:41:04,VALID,1010,VALID,0,VALID,90.1669,VALID,0.105969,VALID,25.3877,VALID,221,VALID,1.07734,
2008-06-03, 00:42:04,VALID,1009.97,VALID,0,VALID,90.022,VALID,0,VALID,25.4287,VALID,223,VALID,0.935156,
2008-06-03, 00:43:04,VALID,1009.99,VALID,0,VALID,90.1364,VALID,0.105969,VALID,25.3877,VALID,223,VALID,0.715625,
2008-06-03, 00:44:04,VALID,1009.96,VALID,0,VALID,90.2813,VALID,0,VALID,25.4092,VALID,215,VALID,0.634375,
2008-06-03, 00:45:04,VALID,1009.96,VALID,0,VALID,90.4262,VALID,0,VALID,25.4092,VALID,207,VALID,1.06875,
2008-06-03, 00:46:04,VALID,1009.95,VALID,0,VALID,89.4501,VALID,0,VALID,25.3897,VALID,202,VALID,1.66211,
2008-06-03, 00:47:04,VALID,1009.95,VALID,0,VALID,89.2289,VALID,0,VALID,25.3293,VALID,203,VALID,1.95742,
2008-06-03, 00:48:04,VALID,1009.89,VALID,0,VALID,88.9315,VALID,0.105969,VALID,25.3507,VALID,204,VALID,1.70234,
2008-06-03, 00:49:04,VALID,1009.9,VALID,0,VALID,89.0917,VALID,0.105969,VALID,25.3098,VALID,196,VALID,0.955859,
2008-06-03, 00:50:04,VALID,1009.87,VALID,0,VALID,88.7943,VALID,0.105969,VALID,25.3117,VALID,193,VALID,1.5,
2008-06-03, 00:51:04,VALID,1009.86,VALID,0,VALID,89.0459,VALID,0.105969,VALID,25.2903,VALID,202,VALID,1.19844,
2008-06-03, 00:52:04,VALID,1009.83,VALID,0,VALID,89.1908,VALID,0.105969,VALID,25.2513,VALID,248,VALID,0.930078,
2008-06-03, 00:53:04,VALID,1009.81,VALID,0,VALID,88.6646,VALID,0,VALID,25.2532,VALID,245,VALID,1.43906,
2008-06-03, 00:54:04,VALID,1009.81,VALID,0,VALID,88.718,VALID,0.105969,VALID,25.2337,VALID,241,VALID,0.678125,
2008-06-03, 00:55:04,VALID,1009.81,VALID,0,VALID,88.9315,VALID,0.105969,VALID,25.2123,VALID,198,VALID,0.609766,
2008-06-03, 00:56:04,VALID,1009.83,VALID,0,VALID,88.7333,VALID,0.105969,VALID,25.1733,VALID,239,VALID,1.31992,
2008-06-03, 00:57:04,VALID,1009.85,VALID,0,VALID,88.8477,VALID,0.105969,VALID,25.1343,VALID,207,VALID,1,
2008-06-03, 00:58:04,VALID,1009.86,VALID,0,VALID,88.6265,VALID,0,VALID,25.0973,VALID,193,VALID,1.68594,
2008-06-03, 00:59:04,VALID,1009.86,VALID,0,VALID,88.8324,VALID,0,VALID,25.0973,VALID,198,VALID,1.64922,
2008-06-03, 01:00:04,VALID,1009.87,VALID,0,VALID,88.962,VALID,0,VALID,25.0583,VALID,205,VALID,1.2332,
2008-06-03, 01:01:04,VALID,1009.89,VALID,0,VALID,89.0993,VALID,0,VALID,25.0388,VALID,200,VALID,0.934375,
2008-06-03, 01:02:04,VALID,1009.91,VALID,0,VALID,89.1908,VALID,0,VALID,25.0388,VALID,185,VALID,1.08242,
2008-06-03, 01:03:04,VALID,1009.93,VALID,0,VALID,89.2899,VALID,0,VALID,24.9998,VALID,189,VALID,1.00508,
2008-06-03, 01:04:04,VALID,1009.93,VALID,0,VALID,89.5873,VALID,0,VALID,24.9803,VALID,193,VALID,0.845312,
2008-06-03, 01:05:04,VALID,1009.91,VALID,0,VALID,89.7475,VALID,0,VALID,24.9822,VALID,183,VALID,1.24766,
2008-06-03, 01:06:04,VALID,1009.94,VALID,0,VALID,89.8771,VALID,0,VALID,24.9608,VALID,191,VALID,1.64102,
2008-06-03, 01:07:04,VALID,1009.98,VALID,0,VALID,89.9686,VALID,0,VALID,24.9822,VALID,191,VALID,1.27578,
2008-06-03, 01:08:04,VALID,1009.98,VALID,0,VALID,90.1517,VALID,0,VALID,24.9413,VALID,196,VALID,1.38437,
2008-06-03, 01:09:04,VALID,1009.98,VALID,0,VALID,90.1822,VALID,0,VALID,24.9627,VALID,188,VALID,1.67656,
2008-06-03, 01:10:04,VALID,1010.01,VALID,0,VALID,90.2432,VALID,0,VALID,24.9432,VALID,195,VALID,1.62773,
2008-06-03, 01:11:04,VALID,1010.02,VALID,0,VALID,90.2279,VALID,0,VALID,24.9627,VALID,188,VALID,1.63594,
2008-06-03, 01:12:04,VALID,1010.04,VALID,0,VALID,90.0983,VALID,0,VALID,24.9432,VALID,202,VALID,2.10117,
2008-06-03, 01:13:04,VALID,1010,VALID,0,VALID,90.4491,VALID,0,VALID,24.9608,VALID,186,VALID,1.16406,
2008-06-03, 01:14:04,VALID,1010.01,VALID,0,VALID,90.2889,VALID,0,VALID,24.9199,VALID,184,VALID,2.08828,
2008-06-03, 01:15:04,VALID,1009.96,VALID,0,VALID,90.4719,VALID,0,VALID,24.9199,VALID,174,VALID,1.58633,
2008-06-03, 01:16:04,VALID,1009.95,VALID,0,VALID,90.6397,VALID,0,VALID,24.9218,VALID,185,VALID,0.842969,
2008-06-03, 01:17:04,VALID,1009.95,VALID,0,VALID,90.6626,VALID,0.105969,VALID,24.9023,VALID,190,VALID,1.14414,
2008-06-03, 01:18:04,VALID,1009.93,VALID,0,VALID,90.8685,VALID,0,VALID,24.9023,VALID,187,VALID,0.812109,
2008-06-03, 01:19:04,VALID,1009.91,VALID,0,VALID,90.6702,VALID,0,VALID,24.8828,VALID,179,VALID,1.30039,
2008-06-03, 01:20:04,VALID,1009.95,VALID,0,VALID,90.9676,VALID,0,VALID,24.8828,VALID,197,VALID,0.827734,
2008-06-03, 01:21:04,VALID,1009.9,VALID,0,VALID,90.8761,VALID,0.105969,VALID,24.8633,VALID,179,VALID,1.03125,
2008-06-03, 01:22:04,VALID,1009.93,VALID,0,VALID,90.7617,VALID,0.105969,VALID,24.8438,VALID,184,VALID,0.910547,
2008-06-03, 01:23:04,VALID,1009.93,VALID,0,VALID,91.0896,VALID,0,VALID,24.842,VALID,190,VALID,0.761328,
2008-06-03, 01:24:04,VALID,1009.92,VALID,0,VALID,90.7007,VALID,0.105969,VALID,24.8438,VALID,203,VALID,0.989062,
2008-06-03, 01:25:04,VALID,1009.9,VALID,0,VALID,90.7312,VALID,0.105969,VALID,24.842,VALID,228,VALID,0.625,
2008-06-03, 01:26:04,VALID,1009.87,VALID,0,VALID,90.5634,VALID,0.105969,VALID,24.842,VALID,225,VALID,1.41484,
2008-06-03, 01:27:04,VALID,1009.87,VALID,0,VALID,90.4338,VALID,0,VALID,24.9023,VALID,257,VALID,0.891406,
2008-06-03, 01:28:04,VALID,1009.88,VALID,0,VALID,90.3347,VALID,0,VALID,24.9218,VALID,241,VALID,1.06289,
2008-06-03, 01:29:04,VALID,1009.87,VALID,0,VALID,90.266,VALID,0.105969,VALID,24.9004,VALID,235,VALID,0.954297,
2008-06-03, 01:30:04,VALID,1009.9,VALID,0,VALID,90.2965,VALID,0,VALID,24.9413,VALID,265,VALID,1.1125,
2008-06-03, 01:31:04,VALID,1009.9,VALID,0,VALID,89.9458,VALID,0,VALID,24.9608,VALID,233,VALID,1.35234,
2008-06-03, 01:32:04,VALID,1009.89,VALID,0,VALID,89.9229,VALID,0,VALID,24.9394,VALID,240,VALID,1.54922,
2008-06-03, 01:33:04,VALID,1009.88,VALID,0,VALID,89.4882,VALID,0,VALID,24.9199,VALID,186,VALID,1.44219,
2008-06-03, 01:34:04,VALID,1009.83,VALID,0,VALID,89.717,VALID,0,VALID,24.9413,VALID,203,VALID,1.34883,
2008-06-03, 01:35:04,VALID,1009.82,VALID,0,VALID,89.8695,VALID,0,VALID,24.9218,VALID,200,VALID,1.25937,
2008-06-03, 01:36:04,VALID,1009.86,VALID,0,VALID,90.0068,VALID,0.105969,VALID,24.9023,VALID,216,VALID,1.00703,
2008-06-03, 01:37:04,VALID,1009.85,VALID,0,VALID,90.1822,VALID,0,VALID,24.8828,VALID,189,VALID,1.33477,
2008-06-03, 01:38:04,VALID,1009.84,VALID,0,VALID,90.2355,VALID,0.105969,VALID,24.8615,VALID,183,VALID,1.47578,
2008-06-03, 01:39:04,VALID,1009.85,VALID,0,VALID,89.7246,VALID,0,VALID,24.8438,VALID,171,VALID,1.67305,
2008-06-03, 01:40:04,VALID,1009.87,VALID,0,VALID,90.2432,VALID,0.105969,VALID,24.8438,VALID,180,VALID,1.32109,
2008-06-03, 01:41:04,VALID,1009.89,VALID,0,VALID,90.3728,VALID,0,VALID,24.8049,VALID,156,VALID,0.949219,
2008-06-03, 01:42:04,VALID,1009.93,VALID,0,VALID,90.4948,VALID,0,VALID,24.7854,VALID,195,VALID,1.30156,
2008-06-03, 01:43:04,VALID,1009.91,VALID,0,VALID,90.3194,VALID,0,VALID,24.7854,VALID,196,VALID,1.49453,
2008-06-03, 01:44:04,VALID,1009.92,VALID,0,VALID,90.4338,VALID,0.105969,VALID,24.7445,VALID,183,VALID,1.90781,
2008-06-03, 01:45:04,VALID,1009.96,VALID,0,VALID,90.5939,VALID,0,VALID,24.7445,VALID,188,VALID,1.41797,
2008-06-03, 01:46:04,VALID,1009.94,VALID,0,VALID,90.5101,VALID,0.105969,VALID,24.7269,VALID,175,VALID,2.02578,
2008-06-03, 01:47:04,VALID,1009.98,VALID,0,VALID,90.9066,VALID,0,VALID,24.7464,VALID,172,VALID,1.47812,
2008-06-03, 01:48:04,VALID,1010,VALID,0,VALID,90.9142,VALID,0,VALID,24.7074,VALID,151,VALID,1.38828,
2008-06-03, 01:49:04,VALID,1010.01,VALID,0,VALID,91.0134,VALID,0.105969,VALID,24.6879,VALID,136,VALID,1.64336,
2008-06-03, 01:50:04,VALID,1010.06,VALID,0,VALID,91.3642,VALID,0,VALID,24.6684,VALID,166,VALID,1.18594,
2008-06-03, 01:51:04,VALID,1010.08,VALID,0,VALID,90.3042,VALID,0.105969,VALID,24.6294,VALID,182,VALID,2.49727,
2008-06-03, 01:52:04,VALID,1010.09,VALID,0,VALID,90.5253,VALID,0,VALID,24.6081,VALID,187,VALID,1.87188,
2008-06-03, 01:53:04,VALID,1010.12,VALID,0,VALID,90.6321,VALID,0,VALID,24.6099,VALID,198,VALID,1.3957,
2008-06-03, 01:54:04,VALID,1010.15,VALID,0,VALID,91.0667,VALID,0,VALID,24.6099,VALID,143,VALID,0.912109,
2008-06-03, 01:55:04,VALID,1010.14,VALID,0,VALID,90.9905,VALID,0.105969,VALID,24.5691,VALID,153,VALID,1.16484,
2008-06-03, 01:56:04,VALID,1010.09,VALID,0,VALID,91.204,VALID,0,VALID,24.5691,VALID,182,VALID,1.3,
2008-06-03, 01:57:04,VALID,1010.05,VALID,0,VALID,91.1964,VALID,0.105969,VALID,24.5496,VALID,212,VALID,0.640625,
2008-06-03, 01:58:04,VALID,1009.98,VALID,0,VALID,91.3108,VALID,0.105969,VALID,24.5515,VALID,237,VALID,0.587891,
2008-06-03, 01:59:04,VALID,1009.96,VALID,0,VALID,91.0591,VALID,0,VALID,24.5301,VALID,199,VALID,1.2707,
2008-06-03, 02:00:04,VALID,1009.9,VALID,0,VALID,91.3336,VALID,0,VALID,24.532,VALID,209,VALID,0.651953,
2008-06-03, 02:01:04,VALID,1009.87,VALID,0,VALID,91.2803,VALID,0.105969,VALID,24.5106,VALID,166,VALID,1.41445,
2008-06-03, 02:02:04,VALID,1009.84,VALID,0,VALID,91.4862,VALID,0,VALID,24.4717,VALID,171,VALID,1.01797,
2008-06-03, 02:03:04,VALID,1009.75,VALID,0,VALID,91.7454,VALID,0.105969,VALID,24.4735,VALID,189,VALID,0.805078,
2008-06-03, 02:04:04,VALID,1009.69,VALID,0,VALID,91.9361,VALID,0,VALID,24.4735,VALID,216,VALID,0.816406,
2008-06-03, 02:05:04,VALID,1009.6,VALID,0,VALID,91.898,VALID,0.105969,VALID,24.454,VALID,232,VALID,0.714453,
2008-06-03, 02:06:04,VALID,1009.51,VALID,0,VALID,91.8446,VALID,0,VALID,24.4345,VALID,226,VALID,1.04648,
2008-06-03, 02:07:04,VALID,1009.45,VALID,0.5,VALID,92.0886,VALID,0.105969,VALID,24.4132,VALID,226,VALID,1.09961,
2008-06-03, 02:08:04,VALID,1009.37,VALID,0,VALID,92.4623,VALID,0.105969,VALID,24.3547,VALID,260,VALID,0.649219,
2008-06-03, 02:09:04,VALID,1009.3,VALID,0.5,VALID,92.9046,VALID,0.105969,VALID,24.3371,VALID,237,VALID,0.451953,
2008-06-03, 02:10:04,VALID,1009.27,VALID,0.5,VALID,93.0723,VALID,0.105969,VALID,24.2573,VALID,226,VALID,1.45664,
2008-06-03, 02:11:04,VALID,1009.22,VALID,0,VALID,93.4612,VALID,0,VALID,24.2183,VALID,232,VALID,0.767187,
2008-06-03, 02:12:04,VALID,1009.16,VALID,0.5,VALID,93.7053,VALID,0.105969,VALID,24.1988,VALID,236,VALID,0.903906,
2008-06-03, 02:13:04,VALID,1009.12,VALID,0,VALID,93.9112,VALID,0.105969,VALID,24.1404,VALID,276,VALID,0.399219,
2008-06-03, 02:14:04,VALID,1009.1,VALID,0.5,VALID,94.0637,VALID,0,VALID,24.1014,VALID,281,VALID,0.760938,
2008-06-03, 02:15:04,VALID,1009.14,VALID,0,VALID,94.2467,VALID,0,VALID,24.0837,VALID,284,VALID,0.892969,
2008-06-03, 02:16:04,VALID,1009.18,VALID,0,VALID,94.3611,VALID,0,VALID,24.0235,VALID,278,VALID,0.690234,
2008-06-03, 02:17:04,VALID,1009.21,VALID,0,VALID,94.3839,VALID,0.105969,VALID,23.9845,VALID,253,VALID,1.02031,
2008-06-03, 02:18:04,VALID,1009.23,VALID,0,VALID,94.4755,VALID,0,VALID,23.9455,VALID,257,VALID,0.607422,
2008-06-03, 02:19:04,VALID,1009.26,VALID,0,VALID,94.4907,VALID,0,VALID,23.926,VALID,265,VALID,0.492578,
2008-06-03, 02:20:04,VALID,1009.29,VALID,0.5,VALID,94.5365,VALID,0.105969,VALID,23.9065,VALID,294,VALID,1.41992,
2008-06-03, 02:21:04,VALID,1009.31,VALID,0,VALID,94.4983,VALID,0,VALID,23.8676,VALID,291,VALID,0.927734,
2008-06-03, 02:22:04,VALID,1009.32,VALID,0,VALID,94.5593,VALID,0,VALID,23.8694,VALID,274,VALID,0.789844,
2008-06-03, 02:23:04,VALID,1009.33,VALID,0,VALID,94.6051,VALID,0.105969,VALID,23.8676,VALID,278,VALID,0.720312,
2008-06-03, 02:24:04,VALID,1009.33,VALID,0,VALID,94.6737,VALID,0,VALID,23.8499,VALID,244,VALID,0.460938,
2008-06-03, 02:25:04,VALID,1009.31,VALID,0,VALID,94.75,VALID,0.105969,VALID,23.8091,VALID,245,VALID,0.633594,
2008-06-03, 02:26:04,VALID,1009.27,VALID,0,VALID,94.7424,VALID,0.105969,VALID,23.8286,VALID,277,VALID,1.34414,
2008-06-03, 02:27:04,VALID,1009.25,VALID,0,VALID,94.811,VALID,0,VALID,23.8286,VALID,218,VALID,0.623047,
2008-06-03, 02:28:04,VALID,1009.25,VALID,0,VALID,94.811,VALID,0,VALID,23.8499,VALID,181,VALID,0.401563,
2008-06-03, 02:29:04,VALID,1009.22,VALID,0,VALID,94.8034,VALID,0,VALID,23.8304,VALID,222,VALID,0.898828,
2008-06-03, 02:30:04,VALID,1009.18,VALID,0,VALID,94.8186,VALID,0,VALID,23.8322,VALID,226,VALID,0.840625,
2008-06-03, 02:31:04,VALID,1009.16,VALID,0,VALID,94.8644,VALID,0,VALID,23.8109,VALID,231,VALID,0.664453,
2008-06-03, 02:32:04,VALID,1009.13,VALID,0,VALID,94.9025,VALID,0,VALID,23.8109,VALID,209,VALID,0.833203,
2008-06-03, 02:33:04,VALID,1009.12,VALID,0,VALID,94.9025,VALID,0,VALID,23.8109,VALID,218,VALID,0.850781,
2008-06-03, 02:34:04,VALID,1009.12,VALID,0,VALID,94.9178,VALID,0,VALID,23.8109,VALID,242,VALID,0.741797,
2008-06-03, 02:35:04,VALID,1009.11,VALID,0,VALID,94.9025,VALID,0,VALID,23.8109,VALID,273,VALID,0.580859,
2008-06-03, 02:36:04,VALID,1009.15,VALID,0,VALID,94.933,VALID,0,VALID,23.8109,VALID,293,VALID,0.778125,
2008-06-03, 02:37:04,VALID,1009.16,VALID,0,VALID,94.9635,VALID,0,VALID,23.8109,VALID,305,VALID,0.669922,
2008-06-03, 02:38:04,VALID,1009.2,VALID,0,VALID,95.0245,VALID,0,VALID,23.8109,VALID,323,VALID,0.348437,
2008-06-03, 02:39:04,VALID,1009.19,VALID,0.5,VALID,95.0016,VALID,0,VALID,23.8304,VALID,305,VALID,0.589453,
2008-06-03, 02:40:04,VALID,1009.18,VALID,0,VALID,94.8873,VALID,0,VALID,23.8109,VALID,339,VALID,0.700391,
2008-06-03, 02:41:04,VALID,1009.13,VALID,0,VALID,94.7881,VALID,0,VALID,23.7914,VALID,302,VALID,0.943359,
2008-06-03, 02:42:04,VALID,1009.14,VALID,0,VALID,94.7271,VALID,0,VALID,23.772,VALID,309,VALID,0.931641,
2008-06-03, 02:43:04,VALID,1009.12,VALID,0,VALID,94.7729,VALID,0,VALID,23.8109,VALID,226,VALID,0.512891,
2008-06-03, 02:44:04,VALID,1009.13,VALID,0,VALID,94.7729,VALID,0,VALID,23.7914,VALID,216,VALID,0.466406,
2008-06-03, 02:45:04,VALID,1009.1,VALID,0,VALID,94.7729,VALID,0,VALID,23.7914,VALID,232,VALID,1.02148,
2008-06-03, 02:46:04,VALID,1009.11,VALID,0,VALID,94.7729,VALID,0,VALID,23.8127,VALID,223,VALID,1.03203,
2008-06-03, 02:47:04,VALID,1009.09,VALID,0,VALID,94.7729,VALID,0,VALID,23.7914,VALID,233,VALID,0.807031,
2008-06-03, 02:48:04,VALID,1009.09,VALID,0,VALID,94.7957,VALID,0,VALID,23.7914,VALID,217,VALID,0.905078,
2008-06-03, 02:49:04,VALID,1009.06,VALID,0,VALID,94.7805,VALID,0,VALID,23.8109,VALID,234,VALID,0.350391,
2008-06-03, 02:50:04,VALID,1009.08,VALID,0,VALID,94.7729,VALID,0,VALID,23.772,VALID,235,VALID,0.391406,
2008-06-03, 02:51:04,VALID,1009.07,VALID,0,VALID,94.7424,VALID,0,VALID,23.772,VALID,281,VALID,0.669141,
2008-06-03, 02:52:04,VALID,1009.11,VALID,0,VALID,94.7957,VALID,0,VALID,23.772,VALID,270,VALID,0.342187,
2008-06-03, 02:53:04,VALID,1009.13,VALID,0,VALID,94.7652,VALID,0,VALID,23.7738,VALID,316,VALID,0.271484,
2008-06-03, 02:54:04,VALID,1009.14,VALID,0,VALID,94.7957,VALID,0,VALID,23.7738,VALID,240,VALID,0.296094,
2008-06-03, 02:55:04,VALID,1009.17,VALID,0,VALID,94.7957,VALID,0,VALID,23.7738,VALID,241,VALID,0.317187,
2008-06-03, 02:56:04,VALID,1009.17,VALID,0,VALID,94.811,VALID,0,VALID,23.772,VALID,300,VALID,0.351953,
2008-06-03, 02:57:04,VALID,1009.17,VALID,0,VALID,94.7881,VALID,0,VALID,23.7525,VALID,315,VALID,0.862109,
2008-06-03, 02:58:04,VALID,1009.18,VALID,0,VALID,94.8644,VALID,0,VALID,23.7932,VALID,340,VALID,0.571094,
2008-06-03, 02:59:04,VALID,1009.18,VALID,0,VALID,94.8873,VALID,0,VALID,23.772,VALID,332,VALID,0.753125,
2008-06-03, 03:00:04,VALID,1009.15,VALID,0,VALID,94.8339,VALID,0,VALID,23.7525,VALID,2,VALID,1.04961,
2008-06-03, 03:01:04,VALID,1009.17,VALID,0,VALID,94.8262,VALID,0,VALID,23.733,VALID,341,VALID,0.590234,
2008-06-03, 03:02:04,VALID,1009.15,VALID,0,VALID,94.8415,VALID,0,VALID,23.7543,VALID,12,VALID,0.648828,
2008-06-03, 03:03:04,VALID,1009.16,VALID,0,VALID,94.8873,VALID,0,VALID,23.7543,VALID,14,VALID,0.530859,
2008-06-03, 03:04:04,VALID,1009.17,VALID,0,VALID,94.9254,VALID,0,VALID,23.733,VALID,36,VALID,0.365234,
2008-06-03, 03:05:04,VALID,1009.16,VALID,0,VALID,94.9483,VALID,0,VALID,23.7738,VALID,85,VALID,0.517187,
2008-06-03, 03:06:04,VALID,1009.17,VALID,0,VALID,94.9711,VALID,0,VALID,23.733,VALID,19,VALID,0.496094,
2008-06-03, 03:07:04,VALID,1009.18,VALID,0,VALID,95.0169,VALID,0,VALID,23.733,VALID,31,VALID,0.629297,
2008-06-03, 03:08:04,VALID,1009.21,VALID,0,VALID,95.0321,VALID,0,VALID,23.733,VALID,38,VALID,0.655859,
2008-06-03, 03:09:04,VALID,1009.26,VALID,0,VALID,95.0016,VALID,0,VALID,23.7153,VALID,357,VALID,0.373828,
2008-06-03, 03:10:04,VALID,1009.23,VALID,0,VALID,94.994,VALID,0,VALID,23.733,VALID,353,VALID,0.388672,
2008-06-03, 03:11:04,VALID,1009.22,VALID,0,VALID,95.0169,VALID,0,VALID,23.733,VALID,353,VALID,0.110156,
2008-06-03, 03:12:04,VALID,1009.22,VALID,0,VALID,95.055,VALID,0,VALID,23.7135,VALID,356,VALID,0.0582031,
2008-06-03, 03:13:04,VALID,1009.2,VALID,0,VALID,95.0703,VALID,0,VALID,23.733,VALID,337,VALID,0.711719,
2008-06-03, 03:14:04,VALID,1009.19,VALID,0,VALID,95.0855,VALID,0,VALID,23.733,VALID,326,VALID,1.10586,
2008-06-03, 03:15:04,VALID,1009.19,VALID,0,VALID,95.1313,VALID,0,VALID,23.7525,VALID,328,VALID,0.627344,
2008-06-03, 03:16:04,VALID,1009.16,VALID,0,VALID,95.1618,VALID,0,VALID,23.733,VALID,284,VALID,0.459375,
2008-06-03, 03:17:04,VALID,1009.14,VALID,0,VALID,95.1847,VALID,0,VALID,23.7543,VALID,316,VALID,0.171094,
2008-06-03, 03:18:04,VALID,1009.13,VALID,0,VALID,95.177,VALID,0,VALID,23.7543,VALID,339,VALID,0.322656,
2008-06-03, 03:19:04,VALID,1009.15,VALID,0,VALID,95.1923,VALID,0,VALID,23.733,VALID,1,VALID,0.285156,
2008-06-03, 03:20:04,VALID,1009.16,VALID,0,VALID,95.1694,VALID,0,VALID,23.7135,VALID,353,VALID,0.460938,
2008-06-03, 03:21:04,VALID,1009.16,VALID,0,VALID,95.1542,VALID,0,VALID,23.6745,VALID,17,VALID,0.442969,
2008-06-03, 03:22:04,VALID,1009.18,VALID,0,VALID,95.1313,VALID,0,VALID,23.6763,VALID,14,VALID,0.580469,
2008-06-03, 03:23:04,VALID,1009.2,VALID,0,VALID,95.1542,VALID,0,VALID,23.6763,VALID,35,VALID,0.582812,
2008-06-03, 03:24:04,VALID,1009.17,VALID,0,VALID,95.1465,VALID,0,VALID,23.6763,VALID,348,VALID,0.54375,
2008-06-03, 03:25:04,VALID,1009.12,VALID,0,VALID,95.1389,VALID,0,VALID,23.6568,VALID,333,VALID,0.922656,
2008-06-03, 03:26:04,VALID,1009.1,VALID,0,VALID,95.1236,VALID,0,VALID,23.6373,VALID,357,VALID,0.985156,
2008-06-03, 03:27:04,VALID,1009.08,VALID,0,VALID,95.1465,VALID,0,VALID,23.6161,VALID,308,VALID,0.726563,
2008-06-03, 03:28:04,VALID,1009.09,VALID,0,VALID,95.1847,VALID,0.105969,VALID,23.6161,VALID,311,VALID,0.494141,
2008-06-03, 03:29:04,VALID,1009.11,VALID,0,VALID,95.1465,VALID,0.105969,VALID,23.5948,VALID,312,VALID,0.583203,
2008-06-03, 03:30:04,VALID,1009.11,VALID,0,VALID,95.1923,VALID,0.105969,VALID,23.5948,VALID,310,VALID,0.123828,
2008-06-03, 03:31:04,VALID,1009.13,VALID,0,VALID,95.1999,VALID,0.105969,VALID,23.5753,VALID,309,VALID,0.374609,
2008-06-03, 03:32:04,VALID,1009.17,VALID,0,VALID,95.2228,VALID,0.105969,VALID,23.5948,VALID,309,VALID,0.053125,
2008-06-03, 03:33:04,VALID,1009.19,VALID,0,VALID,95.2304,VALID,0.105969,VALID,23.5753,VALID,309,VALID,0.219922,
2008-06-03, 03:34:04,VALID,1009.18,VALID,0,VALID,95.2609,VALID,0.105969,VALID,23.5753,VALID,46,VALID,0.423828,
2008-06-03, 03:35:04,VALID,1009.21,VALID,0,VALID,95.2609,VALID,0.105969,VALID,23.5771,VALID,52,VALID,0.375391,
2008-06-03, 03:36:04,VALID,1009.22,VALID,0,VALID,95.2685,VALID,0,VALID,23.5576,VALID,52,VALID,0.240625,
2008-06-03, 03:37:04,VALID,1009.21,VALID,0,VALID,95.2762,VALID,0,VALID,23.5381,VALID,52,VALID,0.233984,
2008-06-03, 03:38:04,VALID,1009.21,VALID,0,VALID,95.2762,VALID,0,VALID,23.5186,VALID,52,VALID,0.115625,
2008-06-03, 03:39:04,VALID,1009.18,VALID,0,VALID,95.2685,VALID,0,VALID,23.5186,VALID,52,VALID,0,
2008-06-03, 03:40:04,VALID,1009.19,VALID,0,VALID,95.2838,VALID,0,VALID,23.4992,VALID,52,VALID,0,
2008-06-03, 03:41:04,VALID,1009.16,VALID,0,VALID,95.3219,VALID,0,VALID,23.4992,VALID,52,VALID,0.0710938,